Regional Weather Roundup
Issued by NWS Binghamton, NY

Home | Current Version | Previous Version | Text Only | Print | Product List | Glossary On
Versions: 1 2 3 4 5 6 7 8 9 10 11 12 13 14 15 16 17 18 19 20 21 22 23 24 25 26 27 28 29 30 31 32 33 34 35 36 37 38 39 40 41 42 43 44 45 46 47 48 49 50
000
ASUS41 KBGM 230910
RWRBGM

REGIONAL WEATHER ROUNDUP
NATIONAL WEATHER SERVICE BINGHAMTON NY
400 AM EST MON JAN 23 2017

Note: "fair" indicates few or no clouds below 12,000 feet with no
significant weather and/or obstructions to visibility.

* = Station(s) that does not report precipitation, such as rain,
snow, etc, also no thunder or fog.

NYZ009-015>018-022>025-036-037-044>046-055>057-062-231000
...Central New York...

CITY           SKY/WX    TMP DP  RH WIND       PRES   REMARKS
Binghamton     CLOUDY    38  35  89 SE16G24   29.75S WCI  29
Cortland       CLOUDY    45  41  87 SE6       29.76S
Dansville      CLOUDY    38  37  97 N5        29.73S FOG     WCI  34
Elmira         CLOUDY    48  40  73 E7G20     29.73R
Seneca Falls   CLOUDY    43  41  93 CALM      29.76S
Ithaca         CLOUDY    44  39  82 SE10      29.75S
Hamilton       CLOUDY    37  34  87 SE8       29.81R WCI  31
Monticello     CLOUDY    36  34  93 E16G22    29.81S WCI  26
Norwich        CLOUDY    39  36  87 E6        29.81R WCI  35
Oneonta        CLOUDY    34  34 100 SE7       29.79S WCI  28
Penn Yan       FOG       39  37  92 CALM      29.74F VSB 3/4
Rome           CLOUDY    39  33  79 E16G26    29.86F WCI  30
Sidney         CLOUDY    39  39 100 E5        29.79S
Syracuse       DRIZZLE   39  36  89 E12       29.79F WCI  32
$$

PAZ038>040-043-044-047-048-072-231000
...Northeast Pennsylvania...

CITY           SKY/WX    TMP DP  RH WIND       PRES   REMARKS
Hazleton       CLOUDY    39  37  93 E8G20     29.74S WCI  34
Scranton       CLOUDY    42  37  82 E8        29.78R
$$
&&
KEY
WCI = Wind Chill Index
VSB = Visibility
HX  = Heat Index
$$



USA.gov is the U.S. government's official web portal to all federal, state and local government web resources and services.